• In Netherlands
  • List of Countries
  • For 7 days
  • Water Temperature
  • Satellite Maps
  • Weather Map
  • Weather Widgets
  • user-avatar
    Login

    Hourly Weather Sinemorec

    Today, 24 September, Sunday

    Time Temperature Precipitation Wind Pressure Humidity
    00:00 +17°C° 0 mm 2 mps 762 mmHg 57%
    01:00 +17°C° 0 mm 2 mps 762 mmHg 59%
    02:00 +16°C° 0 mm 2 mps 762 mmHg 58%
    03:00 +16°C° 0 mm 2 mps 762 mmHg 59%
    04:00 +15°C° 0 mm 2 mps 762 mmHg 60%
    05:00 +15°C° 0 mm 2 mps 762 mmHg 61%
    06:00 +17°C° 0 mm 2 mps 762 mmHg 56%
    07:00 +18°C° 0 mm 2 mps 762 mmHg 51%
    08:00 +20°C° 0 mm 2 mps 762 mmHg 45%
    09:00 +23°C° 0 mm 2 mps 762 mmHg 41%
    10:00 +25°C° 0 mm 2 mps 763 mmHg 36%
    11:00 +27°C° 0 mm 2 mps 763 mmHg 32%
    12:00 +28°C° 0 mm 2 mps 762 mmHg 31%
    13:00 +28°C° 0 mm 2 mps 762 mmHg 30%
    14:00 +28°C° 0 mm 3 mps 762 mmHg 30%
    15:00 +27°C° 0 mm 3 mps 762 mmHg 34%
    16:00 +26°C° 0 mm 4 mps 762 mmHg 37%
    17:00 +25°C° 0 mm 4 mps 762 mmHg 40%
    18:00 +22°C° 0 mm 4 mps 762 mmHg 48%
    19:00 +20°C° 0 mm 4 mps 762 mmHg 56%
    20:00 +19°C° 0 mm 4 mps 763 mmHg 64%
    21:00 +18°C° 0 mm 3 mps 763 mmHg 67%
    22:00 +18°C° 0 mm 3 mps 763 mmHg 70%
    23:00 +17°C° 0 mm 3 mps 763 mmHg 73%

    Tomorrow, 25 September, Monday

    Time Temperature Precipitation Wind Pressure Humidity
    00:00 +17°C° 0 mm 3 mps 763 mmHg 75%
    01:00 +17°C° 0 mm 2 mps 762 mmHg 78%
    02:00 +17°C° 0 mm 2 mps 762 mmHg 81%
    03:00 +17°C° 0 mm 3 mps 762 mmHg 81%
    04:00 +17°C° 0 mm 3 mps 762 mmHg 80%
    05:00 +17°C° 0 mm 3 mps 762 mmHg 80%
    06:00 +19°C° 0 mm 4 mps 762 mmHg 74%
    07:00 +20°C° 0 mm 5 mps 762 mmHg 69%
    08:00 +21°C° 0 mm 6 mps 762 mmHg 63%
    09:00 +22°C° 0 mm 6 mps 762 mmHg 60%
    10:00 +23°C° 0 mm 7 mps 761 mmHg 56%
    11:00 +24°C° 0 mm 7 mps 761 mmHg 53%
    12:00 +24°C° 0 mm 8 mps 761 mmHg 55%
    13:00 +24°C° 0 mm 8 mps 761 mmHg 57%
    14:00 +24°C° 0 mm 8 mps 761 mmHg 59%
    15:00 +23°C° 0.1 mm 8 mps 760 mmHg 65%
    16:00 +23°C° 0.1 mm 8 mps 760 mmHg 70%
    17:00 +22°C° 0.1 mm 8 mps 760 mmHg 76%
    18:00 +22°C° 0.2 mm 8 mps 760 mmHg 79%
    19:00 +21°C° 0.2 mm 8 mps 761 mmHg 82%
    20:00 +21°C° 0.2 mm 8 mps 761 mmHg 84%
    21:00 +21°C° 0.1 mm 7 mps 761 mmHg 85%
    22:00 +21°C° 0.1 mm 7 mps 760 mmHg 86%
    23:00 +20°C° 0.1 mm 7 mps 760 mmHg 87%

    Day after tomorrow, 26 September, Tuesday

    Time Temperature Precipitation Wind Pressure Humidity
    00:00 +20°C° 0 mm 6 mps 760 mmHg 88%
    01:00 +20°C° 0 mm 6 mps 760 mmHg 88%
    02:00 +20°C° 0 mm 6 mps 759 mmHg 89%
    03:00 +20°C° 0 mm 6 mps 759 mmHg 89%
    04:00 +20°C° 0 mm 6 mps 759 mmHg 89%
    05:00 +19°C° 0 mm 6 mps 759 mmHg 90%
    06:00 +20°C° 0 mm 6 mps 759 mmHg 86%
    07:00 +21°C° 0 mm 6 mps 759 mmHg 83%
    08:00 +21°C° 0 mm 6 mps 759 mmHg 80%
    09:00 +23°C° 0 mm 6 mps 760 mmHg 72%
    10:00 +24°C° 0 mm 6 mps 760 mmHg 64%
    11:00 +27°C° 0 mm 6 mps 760 mmHg 57%
    12:00 +27°C° 0.1 mm 6 mps 760 mmHg 55%
    13:00 +27°C° 0.1 mm 6 mps 759 mmHg 54%
    14:00 +27°C° 0.1 mm 6 mps 759 mmHg 52%
    15:00 +26°C° 0.8 mm 6 mps 759 mmHg 58%
    16:00 +24°C° 0.8 mm 7 mps 759 mmHg 63%
    17:00 +23°C° 0.8 mm 7 mps 759 mmHg 69%
    18:00 +22°C° 1.2 mm 7 mps 760 mmHg 76%
    19:00 +21°C° 1.2 mm 7 mps 760 mmHg 83%
    20:00 +20°C° 1.2 mm 7 mps 761 mmHg 89%
    21:00 +20°C° 0.6 mm 7 mps 761 mmHg 89%
    22:00 +20°C° 0.6 mm 7 mps 761 mmHg 89%
    23:00 +20°C° 0.6 mm 7 mps 761 mmHg 89%

    27 September, Wednesday

    Time Temperature Precipitation Wind Pressure Humidity
    00:00 +20°C° 0.5 mm 7 mps 761 mmHg 89%
    01:00 +20°C° 0.5 mm 7 mps 761 mmHg 89%
    02:00 +18°C° 0.5 mm 7 mps 761 mmHg 89%
    03:00 +18°C° 0.7 mm 7 mps 761 mmHg 89%
    04:00 +18°C° 0.7 mm 7 mps 761 mmHg 89%
    05:00 +18°C° 0.7 mm 7 mps 761 mmHg 89%
    06:00 +20°C° 0.5 mm 7 mps 762 mmHg 87%
    07:00 +20°C° 0.5 mm 7 mps 762 mmHg 85%
    08:00 +20°C° 0.5 mm 8 mps 762 mmHg 83%
    09:00 +20°C° 0.3 mm 8 mps 763 mmHg 82%
    10:00 +20°C° 0.3 mm 8 mps 763 mmHg 80%
    11:00 +21°C° 0.3 mm 8 mps 763 mmHg 78%
    12:00 +21°C° 0.2 mm 8 mps 764 mmHg 77%
    13:00 +21°C° 0.2 mm 8 mps 764 mmHg 76%
    14:00 +21°C° 0.2 mm 8 mps 764 mmHg 75%
    15:00 +20°C° 0.2 mm 8 mps 764 mmHg 76%
    16:00 +20°C° 0.2 mm 8 mps 764 mmHg 78%
    17:00 +18°C° 0.2 mm 8 mps 765 mmHg 79%
    18:00 +18°C° 0.2 mm 8 mps 765 mmHg 81%
    19:00 +17°C° 0.2 mm 8 mps 765 mmHg 83%
    20:00 +17°C° 0.2 mm 8 mps 765 mmHg 84%
    21:00 +17°C° 0.2 mm 8 mps 765 mmHg 84%
    22:00 +17°C° 0.2 mm 7 mps 766 mmHg 84%
    23:00 +17°C° 0.2 mm 7 mps 766 mmHg 84%

    28 September, Thursday

    Time Temperature Precipitation Wind Pressure Humidity
    00:00 +16°C° 0.1 mm 7 mps 765 mmHg 85%
    01:00 +16°C° 0.1 mm 7 mps 765 mmHg 85%
    02:00 +16°C° 0.1 mm 7 mps 765 mmHg 86%
    03:00 +16°C° 0.2 mm 7 mps 765 mmHg 86%
    04:00 +15°C° 0.2 mm 7 mps 765 mmHg 86%
    05:00 +15°C° 0.2 mm 7 mps 765 mmHg 85%
    06:00 +16°C° 0.4 mm 8 mps 765 mmHg 84%
    07:00 +16°C° 0.4 mm 8 mps 765 mmHg 82%
    08:00 +17°C° 0.4 mm 8 mps 765 mmHg 80%
    09:00 +17°C° 0.5 mm 9 mps 765 mmHg 78%
    10:00 +17°C° 0.5 mm 9 mps 765 mmHg 77%
    11:00 +18°C° 0.5 mm 9 mps 765 mmHg 76%
    12:00 +18°C° 0.3 mm 10 mps 765 mmHg 74%
    13:00 +18°C° 0.3 mm 10 mps 765 mmHg 72%
    14:00 +18°C° 0.3 mm 10 mps 765 mmHg 71%
    15:00 +18°C° 0.1 mm 10 mps 765 mmHg 71%
    16:00 +17°C° 0.1 mm 10 mps 765 mmHg 72%
    17:00 +17°C° 0.1 mm 9 mps 765 mmHg 72%
    18:00 +17°C° 0.2 mm 9 mps 765 mmHg 75%
    19:00 +16°C° 0.2 mm 9 mps 765 mmHg 78%
    20:00 +16°C° 0.2 mm 9 mps 765 mmHg 81%
    21:00 +16°C° 0.3 mm 9 mps 765 mmHg 82%
    22:00 +16°C° 0.3 mm 8 mps 765 mmHg 82%
    23:00 +16°C° 0.3 mm 8 mps 765 mmHg 82%

    29 September, Friday

    Time Temperature Precipitation Wind Pressure Humidity
    00:00 +15°C° 0.2 mm 8 mps 764 mmHg 82%
    01:00 +15°C° 0.2 mm 8 mps 764 mmHg 82%
    02:00 +15°C° 0.2 mm 8 mps 764 mmHg 82%
    03:00 +15°C° 0.3 mm 8 mps 764 mmHg 83%
    04:00 +15°C° 0.3 mm 8 mps 764 mmHg 83%
    05:00 +15°C° 0.3 mm 9 mps 764 mmHg 83%
    06:00 +15°C° 0.3 mm 9 mps 763 mmHg 82%
    07:00 +15°C° 0.3 mm 9 mps 763 mmHg 80%
    08:00 +16°C° 0.3 mm 9 mps 763 mmHg 79%
    09:00 +16°C° 0.2 mm 9 mps 763 mmHg 75%
    10:00 +17°C° 0.2 mm 9 mps 763 mmHg 72%
    11:00 +18°C° 0.2 mm 9 mps 763 mmHg 69%
    12:00 +18°C° 0.2 mm 9 mps 763 mmHg 68%
    13:00 +18°C° 0.2 mm 9 mps 763 mmHg 68%
    14:00 +18°C° 0.2 mm 9 mps 762 mmHg 67%
    15:00 +17°C° 0.2 mm 9 mps 762 mmHg 69%
    16:00 +17°C° 0.2 mm 9 mps 762 mmHg 71%
    17:00 +16°C° 0.2 mm 9 mps 762 mmHg 73%
    18:00 +16°C° 0.2 mm 9 mps 762 mmHg 76%
    19:00 +15°C° 0.2 mm 9 mps 763 mmHg 78%
    20:00 +15°C° 0.2 mm 9 mps 763 mmHg 80%
    21:00 +15°C° 0.2 mm 9 mps 762 mmHg 81%
    22:00 +13°C° 0.2 mm 8 mps 762 mmHg 81%
    23:00 +13°C° 0.2 mm 8 mps 762 mmHg 82%
    Show more